Home > Weather > Prescott > Past weeks

Flag for U.S.A. Weather for the Past 2 Weeks in Prescott, Arizona, U.S.A.

Now
33 °F

Sunny.


Feels Like: 30 °F
Forecast: 34 / 68 °F
Wind: 3 mph from Southwest

Location: Love Field

Current Time: Feb 14, 2016 at 8:20:16 AM

Latest Report: Feb 14, 2016 at 7:53 AM


Visibility: 10 mi

Pressure: 30.07 "Hg (24.52 "Hg at 1635m altitude)

Humidity: 58%

Dew point: 20 °F

Location of PrescottLocation

Historic Weather in Prescott — Graph

°F

Prescott Temperature Yesterday

Maximum temperature yesterday: 73 °F (at 2:53 PM)
Minimum temperature yesterday: 32 °F (at 6:53 AM)
Average temperature yesterday: 51 °F

High & Low Weather Summary for the Past Weeks

 TemperatureHumidityPressure
High74 °F (Feb 11, 3:53 PM)100% (Jan 31, 11:53 PM)30.47 "Hg (Jan 31, 11:53 PM)
Low14 °F (Feb 3, 5:53 AM)6% (Feb 11, 3:53 PM)29.40 "Hg (Jan 31, 10:53 PM)
Average41 °F48%30.15 "Hg
* Reported Jan 30 6:53 AM — Feb 14 6:53 AM, Prescott, Weather by CustomWeather, © 2016

Note: Actual official high and low records may vary slightly from our data, if they occured in-between our weather recording intervals... More about our weather records

Advertising

Prescott Weather History for the Previous 24 Hours

 ConditionsComfort  
Time TempWeatherWind HumidityBarometerVisibility
6:53 AM
Sun, Feb 14
33 °FClear.6 mph58%30.06 "Hg10 mi
5:53 AM32 °FClear.6 mph61%30.03 "Hg10 mi
4:53 AM33 °FClear.5 mph58%30.03 "Hg10 mi
3:53 AM34 °FClear.5 mph52%30.03 "Hg10 mi
2:53 AM38 °FClear.8 mph46%30.02 "Hg10 mi
1:53 AM37 °FClear.5 mph48%30.04 "Hg10 mi
12:53 AM38 °FClear.No wind46%30.04 "Hg10 mi
11:53 PM
Sat, Feb 13
42 °FClear.9 mph41%30.03 "Hg10 mi
10:53 PM41 °FClear.6 mph47%30.06 "Hg10 mi
9:53 PM42 °FClear.6 mph43%30.07 "Hg10 mi
8:53 PM48 °FClear.No wind36%30.10 "Hg10 mi
7:53 PM56 °FClear.8 mph24%30.08 "Hg10 mi
6:53 PM57 °FClear.7 mph25%30.06 "Hg10 mi
5:53 PM66 °FSunny.9 mph16%30.03 "Hg10 mi
4:53 PM69 °FSunny.6 mph11%30.02 "Hg10 mi
3:53 PM71 °FSunny.6 mph7%30.00 "Hg10 mi
2:53 PM73 °FSunny.9 mph7%30.00 "Hg10 mi
1:53 PM71 °FSunny.7 mph12%30.02 "Hg10 mi
12:53 PM69 °FSunny.6 mph13%30.05 "Hg10 mi
11:53 AM66 °FSunny.No wind17%30.09 "Hg10 mi
10:53 AM59 °FSunny.3 mph25%30.13 "Hg10 mi
9:53 AM55 °FSunny.3 mph33%30.14 "Hg10 mi
8:53 AM44 °FSunny.3 mph49%30.16 "Hg10 mi
Weather by CustomWeather, © 2016

See weather overviewHow to use our weather pages